Location: Eschentzwiller
(47.7125°N, 7.3981°E)
Time: 04:15:30
(UTC+00:00)

ATLAS 5 CENTAUR R/B - Pass Details

Date: 27 October 2020
Orbit: 522 x 1136 km, 63.4° (Epoch: 30 November)

Event Time Altitude Azimuth Distance (km) Brightness Sun altitude
Rises 18:48:28 0° 306° (NW) 2,938 6.0 -25.5°
Reaches altitude 10° 18:51:50 10° 333° (NNW) 2,150 4.7 -26.0°
Maximum altitude 18:54:19 14° 4° (N) 1,998 4.2 -26.4°
Enters shadow 18:55:01 13° 13° (NNE) 2,044 4.2 -26.6°
